Location: Böhme
(52.7904°N, 9.4791°E)
Time: 14:07:14
(UTC+00:00)

Daily predictions for brighter satellites

Satellite Brightness Start Highest point End
(mag) Time Altitude Azimuth Time Altitude Azimuth Time Altitude Azimuth
Tsikada Rocket 4.0 19:43:42 10° N 19:49:54 71° ENE 19:56:01 10° SSE
Cosmos 1758 Rocket 4.2 19:46:29 10° N 19:50:39 40° ENE 19:54:49 10° SE
Meteor 1-27 4.2 19:45:36 10° S 19:51:12 72° E 19:56:46 10° NNE
ADEOS 3.8 19:46:43 10° S 19:51:56 75° WSW 19:57:10 10° NNW
Cosmos 2278 4.4 19:46:45 10° NNW 19:52:17 46° NE 19:57:45 10° ESE
Cosmos 2084 Rocket 4.1 19:49:51 10° NW 19:53:53 48° SW 19:57:59 10° SSE
USA 306 1.8 19:51:26 10° SW 19:54:38 51° SSE 19:56:51 10° E
Cosmos 1302 Rocket 4.0 19:50:00 10° S 19:55:05 63° ESE 20:00:14 10° NNE
SL-16 R/B 2.5 19:51:48 10° NNW 19:57:25 59° NE 20:03:01 10° SE
CZ-4B R/B 3.5 19:55:05 10° SE 19:58:09 33° ENE 20:01:18 10° N
Cosmos 2016 Rocket 4.0 19:54:40 10° S 20:00:55 83° E 20:07:08 10° NNE
Cosmos 724 4.3 19:54:58 10° SW 20:00:59 80° SE 20:06:55 10° NE
CZ-4C R/B 2.1 19:56:42 10° SW 20:01:06 78° NW 20:06:54 10° NE
SKYMED 3 4.3 19:57:56 10° NNE 20:01:55 85° ESE 20:05:52 10° SSW
SL-08 R/B 3.3 19:57:13 10° NNE 20:02:05 70° ESE 20:06:49 10° S
Helios 1A Rocket 3.2 20:07:26 10° N 20:10:31 50° WNW 20:13:33 10° SW
COSMOS 2406 3.7 20:05:57 10° S 20:11:14 40° ESE 20:16:33 10° NE
Cosmos 1743 3.9 20:09:55 10° NNW 20:12:36 29° W 20:15:16 10° SSW
Terra 3.0 20:09:08 10° SSW 20:13:34 41° W 20:18:02 10° NNW
Cosmos 1980 Rocket 3.6 20:09:02 10° NW 20:14:03 33° WSW 20:19:04 10° SSW
Meteor 1-20 Rocket 4.4 20:09:18 10° N 20:14:50 64° ENE 20:20:28 10° SSE
YAOGAN 11 4.2 20:10:34 10° NNE 20:14:57 62° ESE 20:19:23 10° S
Cosmos 1602 Rocket 4.2 20:11:02 10° N 20:15:08 40° ENE 20:18:56 12° SE
NOSS 3-3 (C) 3.9 20:11:11 10° SSW 20:16:14 49° SE 20:22:17 10° NE
CZ-4 R/B 3.8 20:14:17 10° SW 20:16:51 18° W 20:19:26 10° NW
USA 245 4.3 20:14:01 10° SSE 20:19:53 75° ENE 20:25:26 10° NNW
Cosmos 1933 3.9 20:19:19 10° SSE 20:22:43 35° E 20:26:13 10° NNE
Cosmos 2333 Rocket 2.3 20:17:05 10° NNW 20:22:48 76° NE 20:28:05 12° SE
NOSS 3-4 (A) 3.9 20:21:03 10° NW 20:27:32 77° NE 20:34:49 12° SE
Cosmos 44 Rocket 4.3 20:23:02 10° WSW 20:28:04 54° NW 20:33:12 10° NE
NOSS 3-4 (C) 3.9 20:21:41 10° NW 20:28:10 77° NE 20:35:28 12° SE
Cosmos 2061 Rocket 4.0 20:25:05 10° S 20:31:20 88° E 20:37:41 10° N
Cosmos 1626 Rocket 3.6 20:27:28 10° NNW 20:31:51 81° W 20:36:14 10° S
Cosmos 1782 3.7 20:29:13 10° SSW 20:32:35 43° WNW 20:36:00 10° N
Cosmos 1805 3.6 20:29:56 10° N 20:33:00 36° ENE 20:35:11 16° SE
ATLAS 2AS CENTAUR R/B 4.2 20:31:50 10° W 20:38:17 40° NNW 20:44:39 10° NE
SPOT 3 Rocket 3.6 20:33:28 11° SSE 20:38:29 87° WSW 20:43:40 10° NNW
Cosmos 2098 Rocket 3.8 20:35:17 13° SSE 20:39:03 36° E 20:42:54 10° NNE
Cosmos 2360 Rocket 2.4 20:34:56 10° NNW 20:40:36 64° NE 20:45:21 15° SE
Cosmos 1607 4.1 20:35:19 10° SW 20:41:30 78° NW 20:47:51 10° NE
Ariane Rocket 3.0 20:37:06 13° SSE 20:41:40 81° ENE 20:46:46 10° NNW
Cosmos 220 Rocket 4.5 20:39:51 12° S 20:43:10 36° ESE 20:46:56 10° NE
Meteor 1-25 Rocket 4.2 20:41:16 10° NNW 20:46:59 83° ENE 20:51:51 14° SSE
Cosmos 1606 Rocket 4.3 20:49:16 17° SSE 20:52:03 35° E 20:56:00 10° NNE
Cosmos 2151 3.2 20:49:34 10° NNW 20:53:40 65° W 20:57:14 13° S
Helios 1B rocket 4.0 20:52:03 11° E 20:54:12 18° ENE 20:56:39 10° NNE
Okean 1 4.2 20:52:40 19° SE 20:54:16 26° E 20:57:19 10° NNE
Cosmos 2219 Rocket 2.6 20:49:07 10° NNW 20:54:42 55° NE 20:59:14 16° SE
Okean O Rocket 3.2 20:54:00 10° SSW 20:57:46 30° W 21:01:35 10° NNW
Cosmos 1726 Rocket 4.3 20:59:17 20° SE 21:01:19 31° E 21:04:54 10° NNE
Cosmos 1461 2.5 20:59:24 10° SSW 21:03:03 58° SE 21:06:40 10° NE
CZ-2C R/B 1.9 21:01:38 24° S 21:03:09 75° WSW 21:05:56 10° NNW
Cosmos 990 Rocket 4.4 20:59:01 10° NNW 21:04:06 55° ENE 21:07:49 18° SE
RESURS DK-1 4.4 21:02:32 10° NNW 21:05:35 21° NE 21:08:38 10° E
Okean 1-7 Rocket 3.6 21:03:19 10° N 21:07:49 79° ENE 21:10:52 20° SSE
BREEZE-M DEB (TANK) 4.1 20:58:51 10° WSW 21:11:14 56° S 21:16:12 10° E
Cosmos 2322 Rocket 2.2 21:06:01 10° NNW 21:11:42 79° WSW 21:15:45 20° SSE
Cosmos 2034 Rocket 4.4 21:07:11 18° SSE 21:11:45 48° E 21:17:47 10° NNE
CZ-4B R/B 3.9 21:07:48 14° S 21:11:47 55° WSW 21:16:34 10° NNW
USA 186 4.2 21:10:36 10° WSW 21:11:56 13° W 21:13:16 10° WNW
Cosmos 1437 Rocket 2.9 21:10:03 10° SSW 21:13:34 61° WNW 21:17:09 10° N
Cosmos 1544 Rocket 4.2 21:09:29 10° SSW 21:13:46 55° WNW 21:18:02 10° N
Cosmos 1777 Rocket 4.0 21:10:19 10° NNW 21:15:34 77° WSW 21:19:08 21° SSE
Cosmos 2082 Rocket 3.3 21:11:48 10° WSW 21:17:19 47° NW 21:22:50 10° NNE
USA 306 1.3 21:19:05 10° W 21:21:36 57° N 21:21:47 52° NNE
Cosmos 1503 Rocket 4.0 21:17:25 10° NNW 21:22:39 85° WSW 21:25:58 23° SSE
ISS -3.9 21:21:44 10° W 21:25:04 74° S 21:27:26 18° E
Nadezhda 4 Rocket 4.0 21:21:43 10° NNW 21:27:50 80° W 21:32:26 19° S
Cosmos 44 3.7 21:23:36 10° NW 21:29:02 68° NE 21:32:52 19° ESE
Cosmos 2237 Rocket 4.1 21:24:41 10° NNW 21:29:19 25° NE 21:33:55 10° E
Meteor 2-10 4.4 21:25:50 10° NNW 21:31:33 71° W 21:35:38 19° S
Cosmos-2242 3.7 21:30:18 26° SE 21:31:55 36° E 21:35:43 10° NNE
USA 290 2.2 21:33:40 37° S 21:34:36 55° ESE 21:37:42 10° NE
NOSS 3-3 (A) 4.4 21:30:17 10° WSW 21:35:41 62° NW 21:42:17 10° NE
Cosmos 1707 3.0 21:36:02 29° E 21:36:12 29° E 21:38:43 10° NNE
Cosmos 1354 Rocket 4.0 21:31:00 10° NNW 21:36:17 89° ENE 21:39:24 25° SSE
COSMOS 2428 3.5 21:32:59 10° NNW 21:38:27 44° NE 21:42:51 15° ESE
SL-16 R/B 3.5 21:36:18 10° NW 21:41:13 31° WSW 21:45:09 15° SSW
Cosmos 1825 Rocket 3.9 21:37:53 10° NNW 21:42:10 59° W 21:44:44 23° SSW
Cosmos 2195 Rocket 4.5 21:39:48 10° NNW 21:46:04 84° W 21:50:09 23° S
Cosmos 372 Rocket 4.3 21:42:28 10° NNW 21:47:32 57° ENE 21:50:33 23° SE
Cosmos 1953 Rocket 3.5 21:43:10 10° NNW 21:47:33 85° W 21:49:43 29° S
CZ-4C R/B 4.0 21:45:38 10° WNW 21:50:11 33° NNW 21:55:59 10° NE
Cosmos 2026 Rocket 4.0 21:44:23 10° N 21:50:49 90° ESE 21:54:55 24° S
Cosmos 1271 Rocket 3.9 21:52:42 21° E 21:53:02 21° E 21:55:40 10° NE
COSMOS 2406 4.2 21:49:54 10° SW 21:55:27 49° NW 22:01:02 10° NNE
Cosmos 2221 4.0 21:54:54 20° ESE 21:56:03 22° E 21:59:18 10° NE
Aureole 1 Rocket 3.9 21:51:16 10° NNW 21:56:49 85° ENE 22:00:52 25° SSE
Cosmos 2058 Rocket 3.2 21:57:50 32° SSE 21:59:38 59° E 22:03:55 10° NNE
Cosmos 1766 2.6 21:58:01 10° NNW 22:01:15 82° W 22:02:02 48° S
Cosmos 540 Rocket 3.4 21:58:20 23° SSW 22:01:33 73° ESE 22:06:43 10° NNE
Cosmos 1937 Rocket 4.2 22:00:33 10° NNW 22:05:32 47° ENE 22:08:43 21° ESE
Cosmos 1842 3.6 22:05:49 33° ESE 22:06:02 34° E 22:08:56 10° NNE
Cosmos 2333 Rocket 3.9 22:02:08 10° NW 22:06:33 23° WSW 22:10:06 13° SSW
Spot 4 4.1 22:07:43 28° SE 22:10:04 61° ENE 22:14:49 10° N
Geosat 3.9 22:06:01 10° NNE 22:11:03 83° ESE 22:14:39 19° SSW
Cosmos 468 Rocket 4.2 22:10:44 30° S 22:13:10 54° ESE 22:18:18 10° NNE
ARIANE 5 R/B 2.8 22:11:52 31° SE 22:13:50 64° ENE 22:18:16 10° N
ALOS 2 3.0 22:13:10 30° SE 22:15:07 55° ENE 22:19:26 10° N
Cosmos 1833 4.1 22:11:32 17° SSW 22:15:59 87° ESE 22:21:39 10° NNE
Cosmos 2297 Rocket 3.8 22:17:12 17° ESE 22:18:38 19° E 22:22:24 10° ENE
Cosmos 1536 2.7 22:16:40 10° NNW 22:20:20 65° W 22:21:26 41° SSW
Meteor 2-6 Rocket 4.5 22:18:01 28° SSE 22:21:09 63° E 22:27:02 10° NNE
Cosmos 2360 Rocket 3.5 22:19:26 10° NW 22:24:12 28° WSW 22:27:05 18° SSW
Cosmos 2322 3.7 22:18:27 10° NNW 22:24:12 87° ENE 22:27:17 29° SSE
Helios 1A 3.2 22:21:03 10° N 22:24:56 60° WNW 22:26:53 27° SW
Helios 1B rocket 2.6 22:25:59 37° SW 22:26:53 47° W 22:30:18 10° NNW
CSL-04 DEB 4.4 22:27:08 40° SSW 22:28:05 55° WSW 22:31:40 10° NNW
USA 234 3.8 22:23:51 10° ENE 22:29:46 35° SE 22:32:06 28° S
ATLAS 2AS CENTAUR R/B 4.4 22:24:39 10° WNW 22:30:48 34° N 22:36:53 10° ENE
PSLV R/B 4.2 22:29:26 10° NNE 22:33:30 42° E 22:34:43 34° SE
Cosmos 1092 Rocket 4.4 22:30:42 10° NNW 22:36:40 53° W 22:40:16 24° SSW
Cosmos 1898 Rocket 3.4 22:32:11 10° NNW 22:37:24 83° WSW 22:39:45 34° SSE
Cosmos 2219 Rocket 3.2 22:33:23 10° NW 22:38:25 34° WSW 22:40:55 23° SSW
SeaSat 1 3.8 22:34:43 10° ESE 22:39:08 35° NE 22:43:35 10° NNW
Cosmos 1470 2.2 22:36:30 10° NNW 22:39:48 75° W 22:40:17 60° SSW
Cosmos 1763 Rocket 4.1 22:35:26 14° SW 22:39:53 57° WNW 22:45:05 10° NNE
RESURS DK-1 2.2 22:39:25 10° NW 22:43:23 75° WSW 22:44:27 47° SSE
TSX-5 3.9 22:46:01 10° NW 22:48:57 39° WSW 22:48:57 39° WSW
Cosmos 1975 2.5 22:47:07 10° NNW 22:50:48 76° W 22:51:35 52° S
Cosmos 2322 Rocket 4.2 22:51:30 10° WNW 22:54:50 16° W 22:57:32 12° SW
MetOp-A 3.9 22:53:43 32° SSE 22:55:56 71° ENE 23:00:35 10° NNW
NOSS 0 Rocket 3.9 22:50:38 10° NW 22:56:50 80° WSW 23:00:06 30° SSE
NOSS 8 (H) 4.1 22:55:12 10° NW 22:58:04 74° NE 22:58:24 63° E
Lacrosse 4 Rocket 3.3 23:01:09 16° ESE 23:01:09 16° ESE 23:03:33 10° ENE
SL-16 R/B 3.9 22:56:04 10° NNW 23:01:06 31° NE 23:06:07 10° ESE
ISS -2.4 22:58:30 10° W 23:00:22 27° WSW 23:00:22 27° WSW
SAR-Lupe-2 3.4 23:02:14 56° SW 23:02:37 62° WSW 23:05:56 10° NNW
Meteor 2-9 Rocket 4.4 23:02:47 10° NNW 23:08:04 57° W 23:10:28 32° SSW
Cosmos 1707 4.4 23:07:32 14° W 23:08:30 16° WNW 23:10:21 10° NNW
CZ-2C R/B 4.1 23:05:41 10° N 23:10:03 56° WNW 23:12:13 28° SW
Cosmos 841 Rocket 3.4 23:09:01 34° SSW 23:11:20 80° ESE 23:16:36 10° NNE
Cosmos 1812 Rocket 3.5 23:10:37 42° S 23:12:06 87° ESE 23:16:33 10° NNE
Intercosmos 24 3.8 23:09:14 10° N 23:13:20 71° ENE 23:14:16 46° SE
Cosmos 2237 Rocket 2.2 23:08:29 10° NNW 23:14:13 83° ENE 23:17:27 27° SE
Cosmos 2279 Rocket 4.3 23:14:25 24° SSW 23:18:11 60° WNW 23:24:25 10° N
Cosmos 1980 3.6 23:12:34 10° NNW 23:18:16 87° WSW 23:21:16 29° SSE
Meteor 1-11 Rocket 3.8 23:13:10 10° NNW 23:18:50 71° W 23:21:21 33° S
CZ-2C R/B 2.6 23:18:46 32° SSE 23:21:19 83° ENE 23:26:33 10° NNW
NOSS 8 (E) 3.9 23:18:44 10° NW 23:21:40 86° NE 23:21:51 77° ESE
COSMOS 2428 3.2 23:17:21 10° NW 23:22:43 44° WSW 23:24:48 31° SSW
ACS3 Solar Sail 2.9 23:19:57 10° NNE 23:25:15 32° E 23:28:30 20° SE
Meteor 2-4 Rocket 4.1 23:23:24 30° SSE 23:25:47 50° E 23:31:07 10° NNE
Meteor 1-10 Rocket 4.3 23:23:16 31° SSW 23:26:15 86° WNW 23:32:14 10° NNE
Cosmos 1271 Rocket 3.8 23:26:03 25° WSW 23:27:05 31° WNW 23:30:09 10° N
Cosmos 2227 Rocket 3.5 23:26:17 21° SE 23:28:23 26° ESE 23:33:01 10° NE
Meteor 2-20 4.4 23:29:37 31° S 23:32:44 88° ESE 23:38:51 10° NNE
Cosmos 2221 3.2 23:31:11 30° SW 23:32:48 45° WNW 23:36:51 10° N
Cosmos 192 4.5 23:30:32 10° NNW 23:35:29 71° ENE 23:38:13 26° SE
NOSS 8 (F) 3.9 23:34:07 10° NW 23:36:57 76° WSW 23:36:57 76° WSW
GP-B 3.3 23:32:52 10° N 23:37:11 60° W 23:38:41 37° SW
Cosmos 1238 Rocket 2.9 23:37:44 45° SSE 23:38:49 69° E 23:43:08 10° NNE
BREEZE-M DEB (TANK) 4.4 23:24:45 10° SW 23:39:08 40° SSE 23:43:55 10° E
CZ-4C R/B 4.3 23:34:46 10° NW 23:39:58 34° NNE 23:46:32 10° ENE
Cosmos 1842 Rocket 4.3 23:38:31 30° SE 23:40:04 42° E 23:44:15 10° NNE
Cosmos 2263 Rocket 3.8 23:37:50 16° SE 23:40:09 21° ESE 23:44:14 10° NE
Meteor 1-27 Rocket 3.7 23:39:18 32° S 23:42:09 86° E 23:47:56 10° NNE
Cosmos 2266 Rocket 4.3 23:39:04 10° NNW 23:44:52 50° W 23:47:46 28° SSW
Cosmos 1937 Rocket 4.4 23:42:42 10° NW 23:47:15 33° WSW 23:48:46 27° SW
ARIANE 5 R/B 4.4 23:49:14 17° WSW 23:50:34 19° W 23:53:45 10° NW
Sich 1 3.4 23:46:44 10° N 23:50:50 54° ENE 23:52:43 29° SE
ALOS 2 4.2 23:50:33 19° WSW 23:51:47 21° W 23:55:10 10° NW
Landsat 5 3.4 23:49:31 10° NNE 23:53:39 71° ESE 23:54:53 42° S
